[[{"header":{"parameterUnit":"m.s-1","parameterCategory":1,"la1":30.2991,"la2":30.254,"lo1":-89.0895,"lo2":-89.0444,"dy":0.0017,"dx":0.0017,"nx":28,"ny":28,"refTime":"2024-04-21T09:00:00:Z","depth":0,"parameterNumber":2,"parameterNumberName":"U-component_of_WINDS"},"data":[0,0,0,0,0,0,0,0,0,0,0,0,0,0,0,0,0,0,0,0,0,0,0,0,0,0,0,0,0,0,0,0,0,0,0,0,0,0,0,0,0,0,0,0,0,0,0,0,0,0,0,0,0,0,0,0,0,0,-2.1777,-2.1777,0,-2.1828,-2.1828,-2.1829,-2.1724,-2.172,-2.1717,-2.1714,-2.1767,-2.1772,-2.1776,0,0,0,0,0,0,0,0,0,0,0,0,0,-2.1588,-2.1592,-2.1776,-2.1777,-2.1778,-2.1827,-2.1828,-2.1829,-2.1724,-2.172,-2.1716,-2.1712,-2.1766,-2.1771,-2.1777,0,0,0,0,0,0,0,0,0,0,0,0,0,-2.1658,-2.1593,-2.1776,-2.1732,-2.1728,-2.1827,-2.1828,-2.1829,-2.1725,-2.172,-2.1715,-2.171,-2.1764,-2.1771,-2.1777,-2.1923,0,0,-2.1799,-2.1802,0,0,0,0,0,0,0,0,-2.1654,-2.1665,-2.1738,-2.1735,-2.1731,-2.1764,-2.1781,-2.1861,-2.1727,-2.1726,-2.1714,-2.1708,-2.177,-2.1776,-2.1797,-2.1925,-2.1928,-2.1799,-2.1803,-2.1806,-2.1808,0,0,0,0,0,0,0,-2.1649,-2.1662,-2.1797,-2.1739,-2.1735,-2.1709,-2.1713,-2.1796,-2.1777,-2.1726,-2.1718,-2.1726,-2.1768,-2.1791,-2.1798,-2.1928,-2.1799,-2.1805,-2.1809,-2.1812,-2.2178,-2.2183,0,0,0,0,0,0,-2.165,-2.1659,-2.1795,-2.1798,-2.1679,-2.1716,-2.1721,-2.1759,-2.1775,-2.1773,-2.173,-2.1721,-2.1782,-2.179,-2.1799,-2.1971,-2.1806,-2.1813,-2.1817,-2.2172,-2.2179,-2.2185,0,0,0,0,0,0,-2.1646,-2.1663,-2.1793,-2.1726,-2.1741,-2.1725,-2.1768,-2.1762,-2.1786,-2.1779,-2.1775,-2.1758,-2.1778,-2.179,-2.1893,-2.1972,-2.1816,-2.1822,-2.2166,-2.2174,-2.2182,-2.2317,0,0,0,0,0,0,-2.1641,-2.1663,-2.1718,-2.1728,-2.1745,-2.1887,-2.1773,-2.1767,-2.1798,-2.1786,-2.1803,-2.1801,-2.1775,-2.1883,-2.19,-2.1978,-2.1828,-2.2159,-2.2169,-2.2179,-2.2305,-2.2328,-2.2348,0,0,0,0,0,-2.1635,-2.1754,-2.1721,-2.1739,-2.1814,-2.1891,-2.1901,-2.1867,-2.1804,-2.186,-2.1855,-2.1801,-2.1959,-2.1894,-2.1912,-2.1994,-2.2154,-2.2166,-2.2179,-2.2295,-2.2324,-2.2348,0,0,0,0,0,0,-2.1755,-2.1755,-2.1719,-2.1845,-2.1869,-2.1873,-2.1943,-2.1899,-2.1941,-2.1929,-2.1885,-2.189,-2.2002,-2.2008,-2.1935,-2.2135,-2.2046,-2.2063,-2.2129,-2.2156,-2.2177,-2.2175,-2.1833,0,0,0,0,0,-2.1795,-2.1858,-2.1855,-2.1966,-2.198,-2.1959,-2.1992,-2.1964,-2.1987,-2.1997,-2.1999,-2.2024,-2.2079,-2.2117,-2.2168,-2.2304,-2.2307,-2.2369,-2.2391,-2.2408,-2.2424,-2.2497,-2.2525,-2.2226,-2.2226,-2.2226,0,0,-2.1881,-2.1889,-2.1931,-2.199,-2.2006,-2.2072,-2.1969,-2.2043,-2.2092,-2.2008,-2.2106,-2.2109,-2.2133,-2.2254,-2.2307,-2.2262,-2.2507,-2.2424,-2.2439,-2.2445,-2.2513,-2.2541,-2.2566,-2.2235,-2.2233,-2.2232,0,0,-2.2071,-2.2083,-2.2177,-2.2194,-2.2218,-2.2203,-2.2226,-2.2237,-2.2235,-2.2332,-2.2271,-2.2327,-2.2424,-2.2444,-2.2467,-2.2662,-2.2614,-2.2679,-2.2794,-2.2865,-2.2889,-2.291,-2.2981,-2.3007,-2.2694,-2.2695,-2.2695,0,-2.2175,-2.2272,-2.2231,-2.231,-2.2338,-2.2263,-2.2359,-2.2377,-2.2417,-2.2438,-2.2386,-2.2505,-2.2516,-2.264,-2.2688,-2.2708,-2.2733,-2.2679,-2.2889,-2.2909,-2.2928,-2.2995,-2.3022,-2.2703,-2.2702,-2.2701,-2.27,0,-2.2399,-2.2467,-2.254,-2.258,-2.2615,-2.2702,-2.2674,-2.2715,-2.2683,-2.2674,-2.2773,-2.2783,-2.2835,-2.2861,-2.2831,-2.2981,-2.2953,-2.2896,-2.2805,-2.2965,-2.3028,-2.3053,-2.2714,-2.2711,-2.2709,-2.2707,0,0,-2.267,-2.2684,-2.2712,-2.2728,-2.2748,-2.28,-2.2882,-2.2932,-2.2968,-2.2997,-2.3066,-2.3147,-2.3094,-2.312,-2.3091,-2.3153,-2.3308,-2.3088,-2.3088,-2.313,-2.3475,-2.3521,-2.3551,-2.3274,-2.3279,-2.3283,-2.3474,0,-2.2859,-2.3002,-2.2967,-2.3108,-2.3171,-2.3099,-2.3171,-2.3191,-2.3183,-2.3235,-2.3225,-2.3285,-2.321,-2.3225,-2.3283,-2.3277,-2.3377,-2.3262,-2.3339,-2.3343,-2.3339,-2.3583,-2.3632,-2.3812,-2.3498,-2.3502,-2.3505,0,-2.3101,-2.3139,-2.3287,-2.3295,-2.332,-2.3385,-2.3427,-2.3477,-2.3497,-2.3487,-2.3515,-2.3473,-2.3554,-2.346,-2.3572,-2.3495,-2.3523,-2.3525,-2.3531,-2.3539,-2.3436,-2.3601,-2.3868,-2.3896,-2.3543,-2.354,-2.3537,0,-2.3287,-2.3374,-2.3473,-2.3489,-2.3501,-2.3549,-2.3556,-2.3571,-2.3603,-2.3639,-2.3659,-2.3704,-2.373,-2.3766,-2.3737,-2.3671,-2.3853,-2.3757,-2.3848,-2.3849,-2.3893,-2.3891,-2.4171,-2.3907,-2.3906,-2.3906,-2.3905,0,-2.3504,-2.3598,-2.3557,-2.3619,-2.3721,-2.3678,-2.3781,-2.3779,-2.3793,-2.3853,-2.3793,-2.385,-2.3807,-2.3861,-2.3838,-2.3934,-2.3945,-2.394,-2.3934,-2.3948,-2.3949,-2.3968,-2.3956,-2.3913,-2.3911,-2.391,-2.3909,0,-2.373,-2.3706,-2.381,-2.3812,-2.3815,-2.3891,-2.3892,-2.3949,-2.3935,-2.4012,-2.4027,-2.4007,-2.4067,-2.404,-2.4103,-2.4087,-2.4212,-2.4187,-2.4206,-2.4201,-2.4294,-2.4287,-2.4599,-2.4638,-2.4347,-2.4349,-2.4352,0,-2.3873,-2.3943,-2.3952,-2.3988,-2.3999,-2.4057,-2.4088,-2.4048,-2.4084,-2.4111,-2.4165,-2.4219,-2.4261,-2.4359,-2.435,-2.4398,-2.4375,-2.4481,-2.4382,-2.4394,-2.438,-2.4377,-2.4384,-2.4503,-2.4506,-2.4509,-2.4511,0,-2.4128,-2.4112,-2.416,-2.4204,-2.4243,-2.4276,-2.4303,-2.4335,-2.4296,-2.4338,-2.4398,-2.4431,-2.4494,-2.4549,-2.459,-2.4597,-2.4549,-2.4541,-2.4565,-2.4582,-2.4591,-2.4589,-2.4263,-2.4535,-2.4533,-2.4531,-2.453,-2.4529,-2.4318,-2.4377,-2.4393,-2.4448,-2.4464,-2.449,-2.4544,-2.4536,-2.4586,-2.4634,-2.4606,-2.4677,-2.4694,-2.4744,-2.4757,-2.4811,-2.477,-2.4804,-2.4814,-2.4823,-2.4837,-2.4579,-2.4818,-2.4818,-2.4817,-2.4816,-2.4816,0,-2.4573,-2.4578,-2.4629,-2.4669,-2.4712,-2.466,-2.4686,-2.4726,-2.4789,-2.4808,-2.485,-2.4919,-2.4971,-2.4965,-2.5013,-2.5058,-2.5037,-2.5072,-2.507,-2.5072,-2.487,-2.4846,-2.5088,-2.5088,-2.5088,-2.5088,-2.5088,-2.5088,-2.471,-2.4808,-2.4794,-2.4898,-2.4902,-2.4971,-2.4991,-2.5015,-2.503,-2.511,-2.5153,-2.5147,-2.5156,-2.5204,-2.525,-2.5246,-2.5268,-2.5312,-2.5301,-2.5113,-2.5087,-2.5061,-2.5038,-2.5316,-2.5317,-2.5498,-2.55,-2.5501]},{"header":{"parameterUnit":"m.s-1","parameterCategory":1,"la1":30.2991,"la2":30.254,"lo1":-89.0895,"lo2":-89.0444,"dy":0.0017,"dx":0.0017,"nx":28,"ny":28,"refTime":"2024-04-21T09:00:00:Z","depth":0,"parameterNumber":3,"parameterNumberName":"V-component_of_WINDS"},"data":[0,0,0,0,0,0,0,0,0,0,0,0,0,0,0,0,0,0,0,0,0,0,0,0,0,0,0,0,0,0,0,0,0,0,0,0,0,0,0,0,0,0,0,0,0,0,0,0,0,0,0,0,0,0,0,0,0,0,-6.657,-6.6572,0,-6.6688,-6.6689,-6.669,-6.6584,-6.658,-6.6576,-6.6571,-6.6685,-6.6692,-6.6699,0,0,0,0,0,0,0,0,0,0,0,0,0,-6.6248,-6.6254,-6.657,-6.6572,-6.6573,-6.6687,-6.6689,-6.6691,-6.6585,-6.658,-6.6574,-6.6569,-6.6683,-6.6691,-6.67,0,0,0,0,0,0,0,0,0,0,0,0,0,-6.6379,-6.6256,-6.657,-6.6534,-6.6532,-6.6687,-6.6689,-6.6691,-6.6586,-6.6579,-6.6573,-6.6567,-6.668,-6.6691,-6.6701,-6.6895,0,0,-6.6733,-6.6738,0,0,0,0,0,0,0,0,-6.6371,-6.639,-6.6538,-6.6537,-6.6535,-6.6615,-6.6617,-6.6759,-6.6588,-6.6565,-6.6571,-6.6564,-6.6667,-6.6678,-6.6714,-6.69,-6.6905,-6.6734,-6.6741,-6.6745,-6.6748,0,0,0,0,0,0,0,-6.6362,-6.6385,-6.6616,-6.654,-6.6539,-6.651,-6.6522,-6.6643,-6.6651,-6.6567,-6.6559,-6.6575,-6.6665,-6.6704,-6.6716,-6.6907,-6.6734,-6.6743,-6.675,-6.6754,-6.7256,-6.7263,0,0,0,0,0,0,-6.6358,-6.6378,-6.6613,-6.662,-6.6436,-6.6521,-6.6534,-6.6596,-6.6649,-6.6651,-6.6581,-6.657,-6.6689,-6.6704,-6.6719,-6.6949,-6.6745,-6.6755,-6.6761,-6.7249,-6.7258,-6.7265,0,0,0,0,0,0,-6.6351,-6.638,-6.6608,-6.6497,-6.6524,-6.6534,-6.6604,-6.6601,-6.6641,-6.6659,-6.6659,-6.662,-6.6685,-6.6705,-6.6852,-6.6952,-6.676,-6.6769,-6.7241,-6.7252,-6.7261,-6.7411,0,0,0,0,0,0,-6.6343,-6.6378,-6.6454,-6.65,-6.653,-6.6742,-6.661,-6.6608,-6.666,-6.6647,-6.6696,-6.6698,-6.6681,-6.6837,-6.6863,-6.6963,-6.6778,-6.7232,-6.7246,-6.7258,-6.7397,-6.7425,-6.7449,0,0,0,0,0,-6.6332,-6.649,-6.6458,-6.6487,-6.6626,-6.6748,-6.6765,-6.6744,-6.6668,-6.6743,-6.6755,-6.6697,-6.6937,-6.6853,-6.6881,-6.6986,-6.7226,-6.7242,-6.7257,-6.7386,-6.742,-6.7449,0,0,0,0,0,0,-6.6454,-6.6496,-6.6461,-6.664,-6.6691,-6.6729,-6.6823,-6.6781,-6.6853,-6.6838,-6.6806,-6.6818,-6.6974,-6.6994,-6.69,-6.7175,-6.7069,-6.7091,-6.7157,-6.7189,-6.7215,-6.7207,-6.6786,0,0,0,0,0,-6.6503,-6.6601,-6.663,-6.6785,-6.6813,-6.6814,-6.6866,-6.6846,-6.6897,-6.6917,-6.694,-6.699,-6.7076,-6.7134,-6.7214,-6.7399,-6.7407,-6.7485,-6.7511,-6.7532,-6.7552,-6.765,-6.7684,-6.7317,-6.7317,-6.7317,0,0,-6.6603,-6.6637,-6.6701,-6.6811,-6.6848,-6.6948,-6.6833,-6.6944,-6.7017,-6.6933,-6.7075,-6.7093,-6.7146,-6.7313,-6.7388,-6.7335,-6.7655,-6.7552,-6.7569,-6.7577,-6.7669,-6.7704,-6.7735,-6.7328,-6.7326,-6.7324,0,0,-6.6836,-6.6873,-6.7006,-6.7046,-6.7104,-6.7104,-6.7136,-6.7181,-6.719,-6.7332,-6.7271,-6.7356,-6.7506,-6.7546,-6.7586,-6.7834,-6.7782,-6.786,-6.7997,-6.8092,-6.8121,-6.8147,-6.8234,-6.8266,-6.7879,-6.788,-6.788,0,-6.6953,-6.7103,-6.7078,-6.7194,-6.7243,-6.7174,-6.7307,-6.7346,-6.7427,-6.7462,-6.7401,-6.7587,-6.7618,-6.7793,-6.7854,-6.7889,-6.7923,-6.7855,-6.812,-6.8145,-6.8168,-6.8251,-6.8284,-6.7889,-6.7888,-6.7887,-6.7886,0,-6.7243,-6.7348,-6.7447,-6.753,-6.759,-6.7713,-6.7705,-6.7769,-6.7742,-6.7747,-6.7891,-6.7926,-6.8012,-6.8051,-6.8026,-6.8223,-6.8188,-6.8125,-6.8017,-6.8213,-6.829,-6.8322,-6.7902,-6.7899,-6.7896,-6.7894,0,0,-6.7558,-6.7625,-6.7662,-6.7698,-6.7757,-6.7836,-6.7955,-6.8041,-6.8095,-6.8153,-6.8251,-6.8379,-6.832,-6.8366,-6.8344,-6.8428,-6.8621,-6.8354,-6.8354,-6.8402,-6.8838,-6.8885,-6.8923,-6.8587,-6.8593,-6.8597,-6.8833,0,-6.7793,-6.8003,-6.7984,-6.8182,-6.8277,-6.8212,-6.8315,-6.8361,-6.8369,-6.8448,-6.8455,-6.8547,-6.8463,-6.849,-6.857,-6.858,-6.8708,-6.8563,-6.8676,-6.868,-6.8665,-6.8963,-6.9014,-6.9235,-6.8863,-6.8868,-6.8872,0,-6.8096,-6.8167,-6.8375,-6.8418,-6.8457,-6.8551,-6.8627,-6.8706,-6.8755,-6.8754,-6.8806,-6.8769,-6.8886,-6.8775,-6.8935,-6.8837,-6.8882,-6.8893,-6.8901,-6.8911,-6.8788,-6.8981,-6.9305,-6.9339,-6.892,-6.8916,-6.8912,0,-6.8305,-6.8451,-6.8594,-6.8627,-6.8681,-6.8748,-6.8774,-6.8817,-6.887,-6.8935,-6.8969,-6.9047,-6.9089,-6.9149,-6.9134,-6.9055,-6.9297,-6.9185,-6.9298,-6.9298,-6.9352,-6.9349,-6.9688,-6.9381,-6.9381,-6.938,-6.9379,0,-6.857,-6.8699,-6.8689,-6.8777,-6.8919,-6.8894,-6.9035,-6.9052,-6.9091,-6.9179,-6.9126,-6.921,-6.9184,-6.9265,-6.9253,-6.9387,-6.9406,-6.9408,-6.9403,-6.9413,-6.9413,-6.9442,-6.9426,-6.9389,-6.9387,-6.9385,-6.9384,0,-6.8827,-6.8825,-6.8977,-6.9016,-6.9029,-6.9132,-6.9164,-6.9246,-6.9249,-6.9361,-6.9386,-6.939,-6.9483,-6.9473,-6.9577,-6.9568,-6.9734,-6.9711,-6.9718,-6.9713,-6.9826,-6.9816,-7.0196,-7.0244,-6.9906,-6.9909,-6.9912,0,-6.8996,-6.9095,-6.9145,-6.9201,-6.9232,-6.9323,-6.9376,-6.9355,-6.9412,-6.9476,-6.9549,-6.9638,-6.9708,-6.9859,-6.987,-6.9948,-6.9926,-7.0054,-6.9938,-6.9944,-6.9928,-6.9922,-6.9931,-7.0077,-7.0081,-7.0084,-7.0087,0,-6.9297,-6.9291,-6.9371,-6.9452,-6.9518,-6.9579,-6.9635,-6.9683,-6.9666,-6.9733,-6.9829,-6.9883,-6.999,-7.0078,-7.0152,-7.0174,-7.0128,-7.0123,-7.0153,-7.0164,-7.0165,-7.0165,-6.9781,-7.0115,-7.0112,-7.011,-7.0108,-7.0107,-6.9515,-6.9599,-6.9648,-6.9738,-6.9778,-6.9831,-6.991,-6.9923,-7.0003,-7.009,-7.0071,-7.0178,-7.0223,-7.0318,-7.0349,-7.0431,-7.0384,-7.0428,-7.0439,-7.045,-7.0463,-7.0152,-7.0444,-7.0443,-7.0442,-7.0442,-7.0441,0,-6.9812,-6.984,-6.9924,-7.0005,-7.0076,-7.0027,-7.0085,-7.0147,-7.0243,-7.029,-7.036,-7.0469,-7.0554,-7.0571,-7.0651,-7.0714,-7.0694,-7.0735,-7.073,-7.0736,-7.0501,-7.0466,-7.075,-7.075,-7.075,-7.075,-7.075,-7.075,-6.9976,-7.0115,-7.0115,-7.0273,-7.0298,-7.0405,-7.0443,-7.049,-7.0528,-7.0653,-7.0724,-7.0735,-7.0769,-7.0851,-7.0926,-7.0928,-7.096,-7.101,-7.1004,-7.0784,-7.0753,-7.0724,-7.0691,-7.1017,-7.1018,-7.1233,-7.1235,-7.1237]}]]